Temperature
18 18 18 18 17 17 17 17 17 17 17 17 17 18 18 18 17 17 18 18 18 18 17 17 17 17 17 17 17 17 17 17 16 16 16 16 16 16 16 16 16 16 16
18 17 17 18 17 17 17 17 17 17 17 17 17 17 17 17 17 17 17 17 17 17 17 17 17 17 17 17 17 17 17 17 16 16 16 16 16 16 16 16 16 16 16
18 18 17 17 17 17 17 17 17 17 17 17 17 17 17 17 17 17 17 17 17 17 17 17 17 17 17 17 17 17 17 17 16 16 16 16 16 16 16 16 16 16 16
17 17 17 17 17 17 17 17 17 17 17 17 17 17 17 17 17 17 17 17 17 17 17 17 17 17 17 17 17 17 17 17 16 16 16 16 16 16 16 16 16 16 16
17 17 17 17 17 17 17 17 17 17 17 17 17 17 17 17 17 17 17 17 17 17 17 17 17 17 17 17 17 17 17 16 16 16 16 16 16 16 16 16 16 16 16
17 17 17 17 17 17 17 17 17 17 17 17 17 17 17 17 17 17 17 17 17 17 17 17 17 17 17 17 16 16 16 16 16 16 16 16 16 16 16 16 16 16 16
17 17 17 17 17 17 17 17 17 17 17 17 17 17 17 17 17 17 17 17 17 17 17 17 16 16 16 16 16 16 16 16 16 16 16 16 16 16 16 16 16 16 16
17 17 17 17 17 17 17 16 16 17 17 17 17 17 17 17 17 17 17 17 17 17 17 16 16 16 16 16 16 16 16 16 16 16 16 16 16 16 16 16 16 16 15
17 17 17 17 17 17 17 16 16 17 17 17 17 17 17 18 17 17 17 17 17 17 17 17 16 16 16 16 16 16 16 16 16 16 16 16 16 16 15 15 15 15 15
17 17 17 17 17 16 16 16 16 16 17 17 17 17 17 17 17 17 17 17 17 17 17 17 16 16 16 16 16 16 16 16 16 15 15 15 15 15 15 15 15 15 15
17 16 16 16 16 16 16 16 16 16 17 17 17 18 18 18 18 18 17 17 17 17 17 17 17 16 16 16 16 16 16 16 16 15 15 15 15 15 15 15 15 15 15
17 16 16 16 16 16 16 16 16 16 16 17 17 17 18 18 18 18 18 18 18 17 17 17 17 17 16 16 16 16 16 16 15 15 15 15 15 15 15 15 15 15 15
17 16 16 16 16 16 16 16 16 16 16 16 17 17 17 17 18 18 18 18 18 18 17 17 17 17 17 16 16 16 16 16 16 15 15 15 15 15 15 15 15 15 15
17 17 17 17 16 16 16 16 16 16 16 16 16 16 17 17 17 17 18 18 18 18 18 18 17 17 17 17 16 16 16 16 15 15 15 15 15 15 15 15 15 15 15
17 17 17 17 16 16 16 16 16 16 16 16 16 16 16 17 17 17 17 17 17 18 18 18 18 17 17 17 16 16 16 16 16 15 15 15 15 15 15 15 15 15 15
17 17 17 17 16 16 16 16 16 16 16 16 16 16 16 16 16 16 17 17 17 17 17 18 18 18 17 17 17 16 16 16 15 15 15 15 15 15 15 15 15 15 15
17 17 17 16 16 16 16 16 16 16 16 16 16 16 16 16 16 16 16 16 16 17 17 17 17 17 17 17 17 16 16 15 15 15 16 15 16 15 15 15 15 15 15
17 17 17 16 16 16 16 16 16 16 16 16 16 15 16 16 16 16 16 16 16 16 16 17 17 17 17 16 16 16 16 15 15 15 16 16 16 16 16 15 15 15 15
17 17 16 16 16 16 16 16 16 16 16 16 15 15 15 15 15 15 16 16 16 16 16 16 16 16 16 16 16 16 16 15 15 15 16 16 16 16 16 15 15 15 15
17 16 16 16 16 16 16 16 16 16 16 16 15 15 15 15 15 15 15 15 15 15 15 15 15 16 16 16 16 15 15 15 15 15 15 16 16 15 15 15 15 15 15
16 16 16 16 16 16 16 16 16 15 15 15 15 15 15 15 15 15 15 15 15 15 15 15 15 15 15 15 15 15 15 15 15 15 15 15 15 15 15 15 15 15 15
16 16 16 16 15 15 15 16 16 15 15 15 15 15 15 14 14 14 14 14 14 14 14 14 14 14 14 14 14 14 14 14 14 15 15 15 15 15 15 15 15 15 15
16 16 15 15 15 15 15 15 15 15 15 14 14 14 14 14 14 14 14 14 14 14 13 13 13 14 14 14 14 14 14 14 14 14 14 14 14 14 14 14 14 14 14
15 15 15 15 14 14 14 15 14 14 14 14 13 13 13 13 13 13 13 13 13 13 13 13 13 13 13 13 13 13 13 13 13 13 13 13 13 13 13 14 14 14 14
14 14 14 14 14 13 14 14 14 13 13 13 13 12 12 12 12 12 12 12 12 12 12 12 12 12 12 12 12 12 12 11 11 12 12 12 12 12 12 13 13 13 13
13 13 13 13 13 13 13 13 13 12 12 12 12 11 11 11 11 11 11 11 11 11 11 11 11 11 11 11 11 11 10 10 10 10 11 11 11 11 11 11 12 12 12
Wind_Speed
3 3 3 2 3 6 5 2 2 3 2 1 2 4 3 4 7 11 13 14 13 12 11 11 10 10 9 9 8 8 8 8 8 8 8 8 8 8 7 7 6 6 6
3 3 3 1 1 3 3 2 3 3 1 1 1 2 2 4 8 10 12 12 13 13 12 11 10 10 10 9 9 9 8 8 9 9 9 8 8 8 8 7 7 6 6
6 3 3 2 2 4 4 1 2 3 3 3 3 2 2 2 6 7 10 11 12 12 12 12 11 10 10 10 9 9 9 9 9 10 10 10 9 9 8 8 8 7 7
6 3 3 3 2 4 3 2 1 2 2 2 3 2 3 3 4 6 8 10 11 11 12 12 12 11 10 10 10 10 10 10 10 10 11 11 11 10 10 10 9 9 8
6 3 3 3 2 2 2 2 3 1 1 2 3 3 3 3 3 5 5 7 10 12 12 13 13 13 12 12 11 11 11 11 11 11 11 11 12 12 12 11 11 10 10
6 3 4 2 2 1 2 2 3 2 1 1 2 4 3 3 3 3 4 6 9 12 13 13 13 12 13 13 12 12 12 11 12 12 12 12 12 13 13 13 13 13 12
5 1 3 3 1 2 2 3 2 2 2 1 1 2 3 4 4 3 2 2 5 8 12 13 13 12 12 14 13 12 12 11 12 12 12 13 13 13 14 14 15 15 14
6 5 3 3 3 3 2 1 1 1 3 3 1 2 2 2 2 5 4 3 3 5 7 11 11 11 11 12 12 13 12 11 11 11 12 12 13 13 14 14 15 15 15
5 3 4 1 3 3 4 2 2 2 1 2 2 1 1 1 2 2 3 4 3 2 3 6 9 10 10 11 11 12 12 11 11 10 10 11 12 12 13 14 15 16 16
6 6 4 3 1 1 5 4 4 1 1 2 2 1 1 1 1 2 2 4 5 4 3 3 6 9 9 10 11 12 12 12 10 10 10 10 11 11 12 13 14 14 15
5 6 5 4 2 1 4 1 3 1 1 2 1 2 2 2 2 2 2 3 3 4 4 3 3 7 11 12 13 13 14 12 10 9 9 9 10 10 11 11 12 12 13
5 6 6 5 4 2 4 2 2 3 1 2 2 2 1 2 3 2 2 4 4 4 5 4 3 5 9 12 12 16 16 14 12 10 10 9 9 10 10 10 10 11 11
6 7 7 6 4 3 4 3 2 1 2 1 2 3 3 2 1 1 1 2 2 3 4 4 4 6 9 10 13 18 16 15 14 12 11 11 10 10 10 10 10 10 11
6 9 8 7 5 5 5 4 4 4 3 2 4 2 3 4 2 2 2 1 1 2 4 5 5 5 7 11 16 20 15 18 16 15 14 13 12 11 11 11 11 11 11
6 10 8 8 6 5 4 5 4 3 4 4 4 4 3 4 3 3 2 2 1 2 3 4 3 5 7 9 16 16 13 19 20 18 17 16 15 15 14 14 13 13 13
5 8 7 7 7 6 5 5 4 4 3 4 3 3 3 4 3 2 2 3 2 2 3 2 3 3 4 6 16 15 13 17 22 22 21 20 19 19 18 17 17 17 17
5 6 6 6 6 6 6 6 6 5 6 6 5 5 5 4 4 4 2 3 3 3 3 4 2 1 4 3 6 9 10 11 16 24 26 25 24 23 22 21 20 20 19
5 6 6 5 6 6 6 7 7 6 5 6 6 5 5 5 5 4 4 4 3 2 2 4 3 1 2 5 5 6 7 11 12 19 28 28 27 26 24 23 23 22 22
5 5 5 5 4 4 4 5 5 5 5 6 6 6 5 5 5 4 4 4 4 4 2 3 4 3 3 4 4 6 7 6 11 13 18 26 27 26 25 25 25 24 24
5 4 4 3 3 2 2 3 4 5 5 5 5 4 4 4 4 4 4 4 4 4 4 4 4 4 4 4 3 4 5 5 7 10 8 13 20 26 27 27 26 26 26
5 4 4 2 1 1 2 2 3 5 4 4 3 2 3 2 2 2 3 2 3 3 4 4 5 5 4 3 3 3 5 4 5 5 4 4 5 8 14 21 25 27 27
4 4 4 4 4 3 5 4 2 1 1 1 2 2 2 2 1 1 2 2 2 4 4 4 5 5 5 4 3 4 3 4 4 3 3 5 4 5 6 10 16 22 25
5 5 6 7 6 6 8 7 6 2 3 3 3 2 2 4 5 3 3 3 4 4 5 4 5 5 5 4 5 5 4 5 5 5 5 7 6 7 6 12 13 16 19
7 8 8 8 7 9 10 9 7 3 4 4 5 5 4 5 6 6 5 4 3 2 3 3 3 4 5 4 4 5 6 7 7 7 6 7 7 7 8 8 13 13 14
9 9 9 9 9 10 13 12 8 4 5 6 6 7 6 5 8 9 5 5 4 4 5 4 4 5 6 7 5 3 5 5 6 6 4 5 5 6 6 6 9 13 14
9 9 10 10 10 10 13 14 10 5 5 5 5 6 10 8 9 10 6 5 5 5 6 7 5 6 6 6 6 4 4 5 5 5 4 4 5 5 5 4 4 7 10
Wind_Direction
140 129 123 144 169 148 162 181 162 121 108 160 187 150 126 103 115 122 138 150 154 157 160 162 164 164 163 167 167 168 172 172 170 165 165 166 164 163 160 158 154 152 149
124 129 128 128 111 118 112 150 142 131 178 155 102 106 137 139 122 125 144 157 162 165 168 171 173 175 175 178 180 180 181 182 181 179 178 178 178 178 178 177 176 174 170
133 139 138 172 135 127 131 163 138 152 185 170 150 139 133 111 129 141 151 161 168 173 176 178 183 185 186 189 193 193 191 192 193 192 191 190 191 191 190 190 190 190 188
142 162 155 139 147 153 152 144 185 175 158 146 139 150 131 135 142 161 170 172 169 174 181 186 187 189 193 199 203 203 201 200 202 202 202 202 202 201 201 201 202 203 202
151 178 113 107 196 170 161 181 134 123 139 148 151 155 162 160 160 184 169 173 169 167 175 187 194 195 200 205 208 208 205 204 207 210 211 211 211 210 211 211 212 213 214
160 172 134 141 241 147 105 73 87 74 55 209 207 156 165 164 183 167 181 181 176 178 177 179 189 201 209 210 211 211 211 210 212 215 218 219 219 218 218 219 219 221 221
147 223 119 149 250 103 114 140 135 162 221 212 176 160 180 189 176 165 200 177 178 180 173 176 187 192 198 210 212 214 216 216 217 219 223 224 225 225 225 225 226 226 227
159 177 131 176 140 120 114 105 127 212 217 176 174 175 185 178 209 185 170 179 176 173 177 183 182 187 193 189 205 212 214 214 219 222 225 228 229 230 231 231 230 231 232
171 130 138 149 139 176 150 187 203 237 247 177 192 236 144 176 179 161 186 147 152 167 186 174 181 187 187 179 185 201 206 210 217 220 223 228 231 232 234 236 237 236 236
167 149 154 131 150 110 140 201 177 234 259 254 186 162 172 104 144 151 203 164 179 182 190 195 183 178 180 170 174 183 197 205 211 218 222 224 228 233 234 235 238 238 238
174 161 158 150 175 198 134 133 122 248 261 273 292 201 186 180 243 183 186 176 190 178 180 196 177 178 182 172 171 181 191 196 200 207 213 218 224 228 232 235 238 239 238
181 170 162 156 186 174 130 145 146 201 307 341 344 324 204 202 231 221 186 198 194 185 181 180 183 183 187 182 186 180 186 191 195 202 209 215 221 226 230 233 236 239 240
179 173 170 165 188 153 150 167 187 231 204 274 311 310 323 309 304 320 267 233 189 177 179 187 195 190 201 172 168 175 183 189 196 203 210 215 220 225 228 230 234 239 243
178 163 162 170 187 174 181 173 202 203 182 206 255 284 322 311 327 308 303 323 274 214 194 207 190 186 197 169 175 179 186 194 201 207 213 218 223 227 230 232 235 238 242
167 159 165 172 185 185 196 170 231 214 158 200 241 219 240 278 270 291 311 314 306 296 254 217 185 187 182 170 172 187 192 201 207 212 218 223 227 231 234 237 239 242 244
161 156 166 174 184 183 193 198 234 208 193 215 245 259 230 280 276 247 261 283 287 289 296 287 219 187 170 181 178 195 208 206 210 216 222 226 229 232 235 238 241 244 245
163 169 176 179 188 190 191 200 237 213 201 220 233 228 220 257 301 314 278 256 256 255 269 286 272 164 156 174 165 216 231 212 213 221 225 227 230 232 235 238 240 243 245
182 184 186 188 199 200 196 201 226 231 213 220 229 234 225 230 224 262 299 295 284 278 273 290 297 294 210 202 196 215 240 245 235 230 225 226 229 232 235 237 240 242 244
192 192 187 189 199 210 206 212 222 243 238 232 228 227 227 239 237 237 244 275 291 283 242 257 272 268 251 227 217 226 244 257 266 264 231 226 229 232 235 238 241 243 244
181 181 173 169 176 201 231 238 232 238 246 249 244 240 237 232 232 240 251 254 271 287 286 265 267 270 261 245 222 223 248 249 254 265 257 232 229 232 236 239 241 243 245
177 167 157 154 137 107 353 299 259 246 240 248 258 259 262 259 240 240 262 278 282 279 280 276 272 271 272 276 254 247 255 264 259 253 263 257 237 235 240 244 246 247 245
142 129 123 108 82 48 12 23 12 319 357 345 323 324 306 354 336 225 267 293 295 285 291 293 294 297 302 312 319 303 298 298 286 298 315 293 279 263 249 250 245 241 242
115 101 90 84 77 44 29 35 37 29 41 37 24 17 355 22 16 355 320 284 266 252 245 267 286 297 306 323 325 315 308 297 280 290 301 282 278 278 276 273 266 252 243
91 85 80 76 69 41 31 33 30 50 57 51 46 44 54 34 10 359 340 332 328 328 290 259 267 285 300 315 305 294 289 285 273 268 261 266 270 269 276 283 287 276 258
86 85 82 77 70 46 33 31 29 58 67 63 59 48 47 43 20 14 7 360 355 348 352 351 314 292 288 288 284 293 289 286 285 285 282 275 282 286 282 280 283 283 274
94 90 82 75 71 58 39 36 29 50 61 65 74 67 54 47 35 25 16 6 359 351 342 332 315 295 277 271 255 237 270 284 290 291 310 324 314 320 301 290 303 316 304
Height
1546 1547 1548 1549 1551 1552 1553 1554 1555 1556 1558 1559 1561 1562 1563 1564 1564 1565 1566 1568 1570 1571 1572 1573 1574 1575 1577 1578 1580 1581 1583 1584 1585 1586 1587 1588 1589 1590 1591 1592 1593 1594 1595
1546 1547 1548 1549 1551 1552 1553 1554 1555 1556 1557 1559 1560 1562 1563 1564 1565 1566 1566 1568 1569 1570 1572 1573 1574 1575 1577 1578 1579 1581 1582 1583 1585 1586 1587 1588 1589 1590 1591 1592 1593 1594 1595
1545 1547 1548 1549 1550 1551 1553 1554 1555 1556 1557 1559 1560 1561 1563 1564 1564 1565 1566 1567 1568 1570 1571 1572 1573 1575 1576 1577 1578 1580 1581 1583 1584 1585 1586 1587 1588 1589 1590 1591 1592 1593 1594
1544 1546 1548 1549 1550 1551 1552 1553 1554 1556 1557 1558 1559 1561 1562 1563 1564 1565 1566 1567 1568 1569 1570 1571 1572 1574 1575 1576 1577 1578 1580 1581 1582 1584 1585 1586 1587 1588 1589 1590 1591 1592 1593
1544 1546 1547 1548 1550 1551 1552 1553 1554 1555 1557 1558 1559 1560 1561 1562 1563 1564 1565 1566 1567 1568 1569 1570 1572 1573 1574 1575 1576 1577 1578 1580 1581 1582 1583 1584 1586 1587 1588 1589 1590 1591 1592
1543 1545 1546 1548 1549 1551 1551 1552 1553 1555 1556 1557 1559 1560 1561 1562 1563 1564 1565 1566 1566 1567 1568 1569 1570 1571 1572 1573 1574 1575 1576 1578 1579 1580 1581 1583 1584 1585 1586 1587 1588 1589 1590
1542 1544 1546 1546 1548 1549 1550 1552 1553 1554 1556 1557 1559 1560 1561 1561 1562 1563 1564 1565 1566 1567 1567 1568 1569 1570 1571 1571 1572 1574 1575 1576 1577 1578 1579 1580 1582 1583 1584 1585 1586 1587 1588
1542 1544 1545 1546 1547 1548 1550 1551 1552 1554 1555 1557 1558 1559 1560 1562 1561 1562 1563 1564 1565 1566 1567 1567 1568 1569 1569 1570 1571 1572 1573 1574 1574 1575 1576 1578 1579 1580 1581 1582 1583 1584 1585
1541 1543 1544 1546 1546 1548 1549 1550 1551 1553 1555 1556 1557 1559 1559 1559 1561 1562 1563 1563 1564 1565 1566 1567 1567 1568 1568 1568 1569 1570 1571 1571 1572 1573 1574 1575 1576 1577 1578 1579 1580 1580 1581
1539 1541 1543 1544 1545 1547 1548 1549 1551 1552 1554 1555 1557 1557 1559 1559 1560 1561 1562 1562 1563 1564 1565 1566 1566 1566 1567 1567 1568 1568 1569 1569 1570 1570 1571 1572 1573 1573 1574 1575 1575 1576 1577
1538 1540 1542 1543 1544 1546 1547 1548 1549 1551 1553 1554 1555 1557 1558 1558 1559 1560 1561 1562 1562 1563 1563 1564 1565 1565 1566 1566 1566 1566 1567 1567 1568 1568 1569 1569 1570 1570 1571 1571 1572 1572 1573
1537 1539 1540 1542 1544 1545 1546 1547 1548 1550 1551 1552 1553 1555 1556 1557 1558 1559 1559 1560 1560 1561 1562 1562 1563 1564 1564 1564 1564 1565 1565 1566 1566 1566 1566 1567 1567 1567 1567 1568 1568 1568 1569
1535 1537 1539 1540 1542 1544 1545 1546 1547 1549 1550 1551 1552 1553 1554 1556 1557 1557 1558 1558 1559 1560 1560 1561 1561 1562 1562 1562 1563 1563 1564 1564 1564 1564 1564 1564 1564 1564 1564 1564 1565 1565 1565
1533 1535 1537 1539 1541 1542 1544 1545 1547 1547 1548 1549 1551 1552 1553 1554 1555 1556 1557 1557 1557 1558 1558 1558 1558 1559 1560 1560 1561 1561 1561 1561 1562 1562 1562 1562 1562 1562 1561 1561 1562 1562 1562
1532 1533 1535 1537 1539 1541 1542 1544 1545 1546 1547 1548 1549 1550 1551 1553 1554 1554 1555 1555 1556 1556 1556 1556 1556 1557 1558 1558 1558 1559 1559 1559 1559 1559 1559 1559 1559 1559 1559 1558 1558 1558 1558
1530 1531 1533 1535 1537 1539 1540 1542 1543 1545 1546 1546 1547 1548 1549 1550 1552 1553 1553 1554 1554 1554 1554 1554 1555 1555 1555 1556 1556 1556 1556 1556 1556 1556 1556 1556 1556 1555 1555 1555 1554 1554 1554
1527 1529 1531 1534 1535 1537 1539 1540 1541 1543 1544 1544 1545 1546 1547 1548 1549 1550 1551 1552 1552 1552 1552 1552 1553 1553 1553 1553 1553 1553 1553 1553 1552 1552 1552 1552 1552 1551 1551 1551 1550 1550 1550
1524 1527 1529 1531 1533 1535 1537 1538 1540 1541 1542 1543 1543 1544 1544 1545 1546 1547 1547 1548 1549 1549 1550 1549 1550 1550 1550 1550 1550 1549 1549 1549 1549 1548 1548 1548 1548 1547 1547 1546 1546 1545 1545
1522 1524 1527 1529 1531 1533 1534 1536 1537 1538 1539 1540 1541 1541 1542 1543 1543 1544 1544 1545 1545 1546 1546 1546 1546 1546 1546 1546 1545 1545 1545 1545 1545 1545 1544 1543 1543 1543 1542 1542 1541 1540 1540
1519 1522 1524 1526 1528 1529 1531 1533 1534 1535 1536 1537 1538 1538 1539 1539 1540 1540 1541 1541 1541 1542 1542 1542 1542 1542 1542 1542 1541 1541 1540 1540 1540 1540 1539 1538 1538 1537 1537 1536 1535 1535 1534
1517 1519 1521 1523 1525 1527 1528 1529 1531 1532 1533 1534 1534 1535 1536 1536 1536 1537 1537 1537 1538 1538 1538 1538 1537 1537 1537 1537 1536 1536 1536 1535 1535 1535 1534 1533 1532 1531 1531 1530 1530 1529 1528
1515 1517 1519 1521 1522 1524 1525 1526 1528 1529 1530 1530 1531 1531 1532 1532 1532 1532 1533 1533 1534 1534 1533 1533 1533 1533 1532 1532 1531 1531 1530 1530 1529 1530 1528 1527 1527 1525 1525 1524 1523 1523 1522
1513 1515 1517 1518 1520 1521 1522 1523 1524 1525 1526 1527 1527 1527 1528 1528 1528 1528 1528 1528 1529 1529 1529 1529 1528 1527 1527 1527 1526 1525 1525 1524 1523 1523 1523 1520 1520 1518 1518 1517 1517 1516 1515
1512 1513 1515 1517 1518 1519 1520 1521 1522 1522 1523 1524 1524 1524 1524 1524 1524 1524 1524 1523 1523 1523 1523 1523 1523 1522 1522 1521 1521 1520 1518 1517 1516 1516 1516 1514 1513 1511 1511 1510 1510 1509 1508
1510 1512 1514 1516 1517 1518 1518 1519 1520 1520 1521 1521 1521 1521 1521 1521 1521 1520 1520 1519 1519 1519 1519 1518 1518 1517 1516 1515 1514 1513 1512 1511 1510 1509 1510 1508 1506 1504 1502 1502 1502 1502 1501
1510 1512 1514 1515 1516 1517 1518 1518 1519 1519 1519 1520 1520 1519 1519 1519 1518 1517 1517 1516 1515 1515 1514 1513 1513 1512 1511 1510 1509 1508 1507 1506 1504 1504 1503 1502 1500 1498 1495 1494 1495 1494 1493